Location: Jackson Park
(37.2862°N, 79.9123°W)
Time: 22:25:24
(UTC+00:00)

Transit 4A - Pass Details

Date: 12 May 2026
Orbit: 861 x 980 km, 66.8° (Epoch: 5 June)

Event Time Altitude Azimuth Distance (km) Brightness Sun altitude
Rises 00:05:39 0° 323° (NW) 3,687 12.2 1.5°
Reaches altitude 10° 00:08:24 10° 315° (NW) 2,735 11.8 1.0°
Maximum altitude 00:14:10 36° 251° (WSW) 1,485 9.6 -0.1°
Drops below altitude 10° 00:19:51 10° 187° (S) 2,687 10.2 -1.1°
Sets 00:22:33 0° 179° (S) 3,614 10.7 -1.6°
